Regional Weather Roundup
Issued by NWS

Home | Current Version | Previous Version | Text Only | Print | Product List | Glossary On
Versions: 1 2 3 4 5 6 7 8 9 10 11 12 13 14 15 16 17 18 19 20 21 22 23 24 25 26 27 28 29 30 31 32 33 34 35 36 37 38 39 40 41 42 43 44 45 46 47 48 49 50
000
ASUS43 KLOT 311310
RWRIL

ILLINOIS REGIONAL WEATHER ROUNDUP
NATIONAL WEATHER SERVICE CHICAGO/ROMEOVILLE IL
800 AM CDT FRI OCT 31 2014

NOTE: "FAIR" INDICATES FEW OR NO CLOUDS BELOW 12,000 FEET WITH NO
SIGNIFICANT WEATHER AND/OR OBSTRUCTIONS TO VISIBILITY.

* THESE STATIONS ARE NOT UNDER NWS QUALITY CONTROL. THEY ALSO MAY NOT
  REPORT WEATHER SUCH AS PRECIPITATION OR FOG.

ILZ001-002-007-009-015-016-024-311400-
NORTHWEST ILLINOIS

CITY           SKY/WX    TMP DP  RH WIND       PRES   REMARKS
MOLINE         PTCLDY    33  20  58 N12G24    30.29R WCI  24
STERLING*      CLOUDY    36  23  60 N23G30    30.23R WCI  24
SAVANNA*       PTCLDY    34  22  62 N14G21    30.27R WCI  24
$$

ILZ003-004-008-010-011-017-018-311400-
NORTH CENTRAL ILLINOIS

CITY           SKY/WX    TMP DP  RH WIND       PRES   REMARKS
ROCKFORD       CLOUDY    35  26  69 N21G31    30.21R WCI  24
FREEPORT*      CLOUDY    33  25  71 N15G28    30.24R WCI  23
ROCHELLE*      CLOUDY    33  29  86 N18G25    30.19R WCI  22
DE KALB*       CLOUDY    33  29  86 N18G28    30.16R WCI  21
PERU*          CLOUDY    37  26  67 N23G31    30.19R WCI  25
$$

ILZ005-006-012>014-019>023-311400-
NORTHEAST ILLINOIS

CITY           SKY/WX    TMP DP  RH WIND       PRES   REMARKS
CHICAGO-OHARE  FLURRIES  34  31  88 NW17      30.10R WCI  23
CHICAGO-MIDWAY FLURRIES  38  29  70 NW22G32   30.10R WCI  27
AURORA         FLURRIES  34  30  85 NW20G26   30.14R WCI  23
LANSING*       CLOUDY    38  28  69 NW12G28   30.08R WCI  30
JOLIET*        CLOUDY    36  27  69 N15G23    30.12R WCI  26
WAUKEGAN       MOCLDY    33  30  88 NW10G18   30.10R WCI  25
DUPAGE AIRPORT CLOUDY    34  31  88 NW17      30.12R WCI  23
KANKAKEE*      CLOUDY    38  29  68 NW20G28   30.10R WCI  28
WHEELING       MOCLDY    35  31  85 NW16G24   30.12R WCI  25
MORRIS*        MOCLDY    37  28  70 NW14G23   30.12R WCI  28
ROMEOVILLE*    LGT SNOW  35  29  78 N16G25    30.12R WCI  25
NORTHERLY ISL    N/A     38  30  73 NW12        N/A  WCI  30
$$

LMZ740>746-311400-
SOUTHERN LAKE MICHIGAN

STATION/POSITION SKY/WX   TEMP    WIND        PRES    VSBY  WAVE
                          AIR SEA DIR/SP/G                  HT/PER
                          (F)     (DEG/KT/KT) (MB)    (MI)  (FT/S)
SOUTHERN BUOY              42 52  330/ 35/ 43 1015.8F        10/ 7
WAUKEGAN HARBOR            35     330/ 18/ 27   N/A
HARRISON CRIB              38     320/ 28/ 37   N/A
BURNHAM HARBOR             38     310/ 16/ 21   N/A
CALUMET HARBOR             37     300/ 10/ 23 1017.5R
MICHIGAN CITY              42     310/ 32/ 37   N/A
$$

ILZ025>027-034>036-040-047-049-050-058-095>099-311400-
WEST-CENTRAL ILLINOIS

CITY           SKY/WX    TMP DP  RH WIND       PRES   REMARKS
QUINCY         CLEAR     32  18  56 N17G30    30.30R WCI  21
GALESBURG*     MOCLDY    32  22  66 NW16G23   30.26R WCI  21
MACOMB*        CLEAR     33  22  64 NW18G28   30.30R WCI  21
JACKSONVILLE*  MOCLDY    40  24  54 NW20G32   30.23R
PITTSFIELD*    CLEAR     37  24  60 NW22G28   30.28R WCI  25
$$

ILZ028>032-037-038-041>044-048-051>054-059>061-311400-
CENTRAL ILLINOIS

CITY           SKY/WX    TMP DP  RH WIND       PRES   REMARKS
PONTIAC        CLOUDY    37  27  67 NW24G32   30.15R WCI  25
BLOOMINGTON    MOCLDY    36  25  64 NW23      30.17R WCI  24
DECATUR        CLOUDY    41  30  65 NW29G36   30.15R
PEORIA         MOCLDY    37  21  52 NW12G25   30.22R WCI  29
LACON*         MOCLDY    34  22  61 N16G22    30.20R WCI  23
LINCOLN*       MOCLDY    38  26  59 N14G22    30.19R WCI  30
SPRINGFIELD    MOCLDY    41  26  55 NW18G24   30.20R
TAYLORVILLE    CLOUDY    39  28  65 NW23G31   30.18R WCI  29
$$

ILZ033-039-045-046-055>057-062-063-311400-
EAST-CENTRAL ILLINOIS

CITY           SKY/WX    TMP DP  RH WIND       PRES   REMARKS
CHAMPAIGN      CLOUDY    39  30  70 NW26G35   30.10R WCI  28
DANVILLE*      CLOUDY    39  36  87 NW10      30.04R WCI  33
RANTOUL*       CLOUDY    40  31  70 N23G31    30.10R
MATTOON        CLOUDY    41  36  82 NW15      30.09R
PARIS*         CLOUDY    42  38  87 NW12      30.08R
$$

ILZ079-100>102-311400-
SOUTHWEST ILLINOIS

CITY           SKY/WX    TMP DP  RH WIND       PRES   REMARKS
ALTON          CLOUDY    46  32  57 NW18G26   30.19R
BELLEVILLE     MOCLDY    46  39  76 N16G28    30.16R
CAHOKIA*       CLOUDY    48  39  71 N26G35    30.19R
SPARTA*        CLOUDY    46  41  82 N10G17    30.15R
$$

ILZ064>066-069>071-074>076-080>082-084>086-088>090-092>094-311400-
SOUTH-CENTRAL ILLINOIS

CITY           SKY/WX    TMP DP  RH WIND       PRES   REMARKS
CARBONDALE     CLOUDY    48  43  82 N12G21    30.13R
CAIRO*         CLOUDY    53  48  84 N15       30.09R
EFFINGHAM*     CLOUDY    45  35  68 NW20G25   30.12R
MARION         CLOUDY    50  45  81 N14       30.12R
MT. VERNON     CLOUDY    48  39  71 N3        30.12R
CENTRALIA*     CLOUDY    47  41  79 N16G22    30.12R
SALEM*         CLOUDY    48  44  85 NW14G20   30.12R
METROPOLIS*    CLOUDY    51  51 100 N14       30.07R
$$

ILZ067-068-072-073-078-083-087-091-311400-
SOUTHEAST ILLINOIS

CITY           SKY/WX    TMP DP  RH WIND       PRES   REMARKS
LAWRENCEVILLE  CLOUDY    46  43  89 NW13      30.07R
FLORA*         CLOUDY    46  42  84 N10G16    30.10R
FAIRFIELD*     CLOUDY    47  43  85 NW8       30.09R
HARRISBURG*    CLOUDY    48  46  95 NW7       30.11R
ROBINSON*      CLOUDY    47  44  87 NW13      30.08R
CARMI*         LGT RAIN  48  47  97 NW7       30.08R
$$

ABBREVIATIONS USED IN REMARKS
   TC - TEMPERATURE IN CELSIUS
  WCI - WIND CHILL INDEX
   HX - HEAT INDEX
  VSB - VISIBILITY
$$




USA.gov is the U.S. government's official web portal to all federal, state and local government web resources and services.